[[{"header":{"parameterUnit":"m.s-1","parameterCategory":1,"la1":30.2991,"la2":30.254,"lo1":-89.0895,"lo2":-89.0444,"dy":0.0017,"dx":0.0017,"nx":28,"ny":28,"refTime":"2023-04-27T21:00:00:Z","depth":0,"parameterNumber":2,"parameterNumberName":"U-component_of_WINDS"},"data":[0,0,0,0,0,0,0,0,0,0,0,0,0,0,0,0,0,0,0,0,0,0,0,0,0,0,0,0,0,0,0,0,0,0,0,0,0,0,0,0,0,0,0,0,0,0,0,0,0,0,0,0,0,0,0,0,0,0,1.3497,1.3497,0,1.3538,1.3538,1.3539,1.3489,1.3487,1.3485,1.3484,1.3527,1.3529,1.3532,0,0,0,0,0,0,0,0,0,0,0,0,0,1.3377,1.338,1.3497,1.3498,1.3498,1.3538,1.3538,1.3539,1.3489,1.3487,1.3485,1.3483,1.3526,1.3529,1.3533,0,0,0,0,0,0,0,0,0,0,0,0,0,1.3425,1.338,1.3497,1.3478,1.3477,1.3537,1.3538,1.3539,1.349,1.3487,1.3484,1.3482,1.3525,1.3529,1.3533,1.3614,0,0,1.3546,1.3548,0,0,0,0,0,0,0,0,1.3422,1.3429,1.348,1.348,1.3478,1.3505,1.3512,1.3564,1.3491,1.3485,1.3484,1.3481,1.3522,1.3526,1.354,1.3616,1.3618,1.3546,1.3549,1.3551,1.3552,0,0,0,0,0,0,0,1.3419,1.3427,1.3513,1.3481,1.348,1.3468,1.3472,1.3521,1.3518,1.3485,1.3482,1.3487,1.3521,1.3536,1.3541,1.3619,1.3546,1.355,1.3553,1.3554,1.3763,1.3766,0,0,0,0,0,0,1.3418,1.3425,1.3512,1.3514,1.3443,1.3472,1.3476,1.35,1.3518,1.3518,1.349,1.3485,1.353,1.3536,1.3542,1.3638,1.3551,1.3555,1.3557,1.376,1.3764,1.3767,0,0,0,0,0,0,1.3415,1.3426,1.351,1.3469,1.3478,1.3477,1.3504,1.3502,1.3517,1.3521,1.352,1.3506,1.3528,1.3536,1.3596,1.3639,1.3557,1.3561,1.3757,1.3762,1.3766,1.3831,0,0,0,0,0,0,1.3412,1.3425,1.3456,1.347,1.3481,1.3564,1.3506,1.3505,1.3524,1.3518,1.3536,1.3536,1.3527,1.359,1.3601,1.3643,1.3564,1.3753,1.3759,1.3764,1.3825,1.3838,1.3848,0,0,0,0,0,1.3408,1.3473,1.3458,1.3469,1.3519,1.3567,1.3573,1.356,1.3528,1.3559,1.3561,1.3535,1.3632,1.3597,1.3608,1.3653,1.375,1.3757,1.3764,1.382,1.3835,1.3848,0,0,0,0,0,0,1.3465,1.3475,1.3458,1.353,1.3548,1.3558,1.3597,1.3577,1.3605,1.3598,1.3581,1.3586,1.365,1.3657,1.3618,1.3732,1.3686,1.3695,1.3725,1.3739,1.375,1.3748,1.3568,0,0,0,0,0,1.3486,1.3524,1.353,1.3593,1.3603,1.3598,1.3619,1.3607,1.3625,1.3633,1.364,1.3659,1.3693,1.3717,1.3749,1.3826,1.3829,1.3862,1.3873,1.3883,1.3891,1.3932,1.3947,1.3789,1.3789,1.3789,0,0,1.353,1.354,1.3565,1.3605,1.3617,1.3657,1.3605,1.3649,1.3678,1.364,1.3697,1.3703,1.3723,1.3792,1.3823,1.38,1.3935,1.3891,1.3898,1.3902,1.3941,1.3955,1.3969,1.3794,1.3793,1.3792,0,0,1.363,1.3641,1.3695,1.3708,1.3728,1.3724,1.3737,1.3751,1.3753,1.381,1.3782,1.3816,1.3877,1.3892,1.3908,1.4013,1.399,1.4024,1.4083,1.4123,1.4135,1.4146,1.4184,1.4198,1.4032,1.4032,1.4032,0,1.3682,1.374,1.3725,1.3771,1.3789,1.3755,1.3809,1.3823,1.3853,1.3866,1.384,1.3914,1.3925,1.3997,1.4023,1.4037,1.4051,1.4022,1.4135,1.4146,1.4156,1.4191,1.4205,1.4036,1.4036,1.4035,1.4035,0,1.3803,1.3844,1.3885,1.3913,1.3936,1.3986,1.3978,1.4003,1.3989,1.3989,1.4048,1.4059,1.4093,1.4109,1.4097,1.418,1.4165,1.4137,1.4091,1.4175,1.4208,1.4222,1.4042,1.404,1.4039,1.4038,0,0,1.3941,1.396,1.3976,1.3988,1.4007,1.4038,1.4086,1.4119,1.414,1.4162,1.4202,1.4253,1.4227,1.4245,1.4233,1.4269,1.4351,1.4236,1.4236,1.4257,1.4443,1.4464,1.4481,1.4336,1.4338,1.434,1.4442,0,1.4042,1.4125,1.4112,1.4192,1.4229,1.4197,1.4239,1.4255,1.4256,1.4288,1.4288,1.4325,1.4288,1.4298,1.4332,1.4334,1.4388,1.4326,1.4373,1.4375,1.437,1.4498,1.4521,1.4616,1.4454,1.4457,1.4458,0,1.417,1.4195,1.4279,1.4292,1.4307,1.4345,1.4373,1.4404,1.4421,1.4419,1.4439,1.4421,1.4469,1.4421,1.4487,1.4445,1.4464,1.4468,1.4471,1.4475,1.4422,1.4506,1.4646,1.466,1.4479,1.4477,1.4475,0,1.4262,1.4317,1.4374,1.4386,1.4402,1.443,1.4438,1.4452,1.4473,1.4498,1.4511,1.4541,1.4558,1.4582,1.4573,1.4539,1.4641,1.4592,1.4641,1.4641,1.4664,1.4663,1.4809,1.4675,1.4675,1.4675,1.4674,0,1.4375,1.4428,1.4416,1.4451,1.4509,1.4494,1.4552,1.4556,1.4569,1.4605,1.4579,1.4613,1.4599,1.4632,1.4625,1.4681,1.4688,1.4688,1.4686,1.4691,1.4691,1.4703,1.4696,1.4679,1.4678,1.4677,1.4676,0,1.4489,1.4483,1.4543,1.4553,1.4557,1.4599,1.4608,1.4641,1.4639,1.4684,1.4694,1.4692,1.4729,1.4722,1.4764,1.4759,1.4829,1.4818,1.4823,1.4821,1.4869,1.4865,1.5029,1.505,1.4902,1.4904,1.4905,0,1.4562,1.4601,1.4615,1.4637,1.4647,1.4683,1.4703,1.4689,1.4712,1.4734,1.4765,1.48,1.4827,1.4889,1.4891,1.4922,1.4912,1.4967,1.4917,1.4921,1.4913,1.4911,1.4915,1.4978,1.4979,1.4981,1.4982,0,1.4692,1.4686,1.4717,1.4746,1.4771,1.4794,1.4814,1.4833,1.4821,1.4848,1.4885,1.4907,1.4949,1.4984,1.5013,1.5021,1.5,1.4998,1.5011,1.5016,1.5017,1.5018,1.4851,1.4994,1.4993,1.4992,1.4991,1.4991,1.4787,1.482,1.4836,1.487,1.4884,1.4903,1.4935,1.4937,1.4968,1.5001,1.4991,1.5034,1.505,1.5087,1.5099,1.5132,1.5112,1.513,1.5135,1.514,1.5146,1.5012,1.5137,1.5137,1.5137,1.5136,1.5136,0,1.4915,1.4924,1.4956,1.4984,1.5012,1.4988,1.5009,1.5034,1.5072,1.5089,1.5116,1.5159,1.5193,1.5198,1.523,1.5256,1.5247,1.5265,1.5263,1.5265,1.5162,1.5148,1.5271,1.5271,1.5271,1.5271,1.5271,1.5271,1.4986,1.5041,1.5038,1.51,1.5108,1.515,1.5164,1.5182,1.5195,1.5244,1.5272,1.5275,1.5287,1.5319,1.5349,1.535,1.5363,1.5385,1.5381,1.5286,1.5272,1.5259,1.5246,1.5388,1.5388,1.5481,1.5482,1.5483]},{"header":{"parameterUnit":"m.s-1","parameterCategory":1,"la1":30.2991,"la2":30.254,"lo1":-89.0895,"lo2":-89.0444,"dy":0.0017,"dx":0.0017,"nx":28,"ny":28,"refTime":"2023-04-27T21:00:00:Z","depth":0,"parameterNumber":3,"parameterNumberName":"V-component_of_WINDS"},"data":[0,0,0,0,0,0,0,0,0,0,0,0,0,0,0,0,0,0,0,0,0,0,0,0,0,0,0,0,0,0,0,0,0,0,0,0,0,0,0,0,0,0,0,0,0,0,0,0,0,0,0,0,0,0,0,0,0,0,4.8699,4.8699,0,4.874,4.8741,4.8741,4.869,4.8688,4.8687,4.8685,4.8722,4.8724,4.8727,0,0,0,0,0,0,0,0,0,0,0,0,0,4.8569,4.8572,4.8699,4.8699,4.87,4.874,4.8741,4.8741,4.8691,4.8688,4.8686,4.8684,4.8721,4.8724,4.8727,0,0,0,0,0,0,0,0,0,0,0,0,0,4.8619,4.8573,4.8699,4.8679,4.8678,4.874,4.8741,4.8742,4.8691,4.8688,4.8685,4.8683,4.872,4.8724,4.8728,4.8809,0,0,4.874,4.8742,0,0,0,0,0,0,0,0,4.8617,4.8624,4.8682,4.8681,4.868,4.8707,4.8709,4.8764,4.8692,4.8686,4.8685,4.8681,4.8719,4.8723,4.8737,4.8811,4.8812,4.8741,4.8743,4.8745,4.8746,0,0,0,0,0,0,0,4.8613,4.8622,4.8715,4.8683,4.8681,4.8667,4.8671,4.8719,4.8717,4.8686,4.8683,4.8689,4.8718,4.8733,4.8737,4.8813,4.874,4.8744,4.8747,4.8748,4.8955,4.8958,0,0,0,0,0,0,4.8613,4.8619,4.8714,4.8716,4.8641,4.8671,4.8676,4.8701,4.8717,4.8717,4.8691,4.8686,4.8727,4.8732,4.8738,4.8834,4.8745,4.8749,4.8751,4.8952,4.8956,4.8959,0,0,0,0,0,0,4.861,4.8622,4.8712,4.8667,4.8677,4.8677,4.8705,4.8703,4.8719,4.872,4.8719,4.8707,4.8725,4.8732,4.8792,4.8835,4.875,4.8754,4.8948,4.8953,4.8957,4.9027,0,0,0,0,0,0,4.8607,4.8621,4.8653,4.8668,4.868,4.8767,4.8708,4.8706,4.8726,4.872,4.8735,4.8735,4.8724,4.8786,4.8796,4.8839,4.8757,4.8944,4.895,4.8956,4.9021,4.9033,4.9044,0,0,0,0,0,4.8602,4.867,4.8655,4.8667,4.8721,4.877,4.8776,4.8763,4.873,4.8762,4.8763,4.8734,4.8829,4.8793,4.8803,4.8848,4.8942,4.8949,4.8955,4.9016,4.9031,4.9044,0,0,0,0,0,0,4.8658,4.8672,4.8655,4.873,4.875,4.8761,4.88,4.878,4.8807,4.88,4.8781,4.8785,4.8849,4.8854,4.8814,4.8927,4.8879,4.8889,4.8922,4.8936,4.8947,4.8945,4.8761,0,0,0,0,0,4.8679,4.872,4.8729,4.8794,4.8805,4.8801,4.8822,4.8811,4.8829,4.8836,4.8841,4.8859,4.8892,4.8914,4.8945,4.9021,4.9023,4.9057,4.9069,4.9078,4.9086,4.9127,4.9142,4.8981,4.8981,4.8981,0,0,4.8723,4.8736,4.8762,4.8806,4.8819,4.886,4.8808,4.8853,4.8883,4.8842,4.89,4.8904,4.8922,4.899,4.9021,4.8997,4.9131,4.9087,4.9095,4.9098,4.9136,4.9151,4.9164,4.8986,4.8985,4.8984,0,0,4.8824,4.8838,4.8894,4.8909,4.8931,4.8928,4.8942,4.8957,4.8959,4.9016,4.8987,4.902,4.9078,4.9092,4.9107,4.9214,4.9189,4.9224,4.9285,4.9324,4.9337,4.9348,4.9386,4.94,4.9232,4.9232,4.9233,0,4.8875,4.8938,4.8925,4.8973,4.8992,4.896,4.9015,4.9029,4.9059,4.9073,4.9046,4.9119,4.9128,4.9199,4.9226,4.9239,4.9252,4.9222,4.9337,4.9348,4.9358,4.9394,4.9408,4.9237,4.9236,4.9236,4.9235,0,4.8999,4.9043,4.9085,4.9118,4.9142,4.9193,4.9186,4.9212,4.9199,4.9198,4.9256,4.9267,4.9299,4.9315,4.9302,4.9385,4.9369,4.934,4.9291,4.9378,4.9411,4.9424,4.9243,4.9241,4.924,4.9239,0,0,4.9136,4.9162,4.9178,4.9192,4.9214,4.9246,4.9295,4.9329,4.9351,4.9373,4.9413,4.9463,4.9436,4.9453,4.944,4.9475,4.9559,4.9442,4.9442,4.9463,4.9651,4.9673,4.9689,4.9543,4.9545,4.9547,4.9649,0,4.9238,4.9326,4.9316,4.9399,4.9438,4.9408,4.945,4.9467,4.9468,4.95,4.95,4.9536,4.9498,4.9508,4.9541,4.9542,4.9596,4.9534,4.9578,4.958,4.9575,4.9706,4.973,4.9825,4.9662,4.9664,4.9666,0,4.9368,4.9397,4.9485,4.9501,4.9517,4.9556,4.9586,4.9617,4.9635,4.9633,4.9653,4.9634,4.9682,4.9633,4.9698,4.9656,4.9673,4.9676,4.9679,4.9683,4.9628,4.9713,4.9855,4.987,4.9686,4.9685,4.9683,0,4.9459,4.9519,4.958,4.9593,4.9613,4.9641,4.965,4.9666,4.9687,4.9712,4.9726,4.9756,4.9772,4.9795,4.9784,4.975,4.9851,4.9801,4.9849,4.985,4.9872,4.9871,5.0019,4.9883,4.9883,4.9883,4.9883,0,4.9573,4.9628,4.9621,4.9658,4.9718,4.9705,4.9765,4.977,4.9784,4.982,4.9794,4.9829,4.9813,4.9845,4.9837,4.9892,4.9899,4.9898,4.9895,4.99,4.9901,4.9911,4.9904,4.9887,4.9886,4.9885,4.9885,0,4.9685,4.9683,4.9747,4.9761,4.9766,4.981,4.9821,4.9855,4.9854,4.99,4.991,4.9908,4.9945,4.9937,4.9977,4.9971,5.004,5.0029,5.0035,5.0032,5.0081,5.0077,5.0242,5.0262,5.0113,5.0115,5.0116,0,4.9758,4.98,4.982,4.9843,4.9855,4.9893,4.9915,4.9903,4.9927,4.9951,4.9982,5.0017,5.0044,5.0105,5.0106,5.0136,5.0125,5.0181,5.0129,5.0133,5.0126,5.0123,5.0127,5.0191,5.0193,5.0194,5.0195,0,4.9888,4.9885,4.9919,4.9952,4.9979,5.0005,5.0027,5.0047,5.0037,5.0064,5.0103,5.0125,5.0166,5.0201,5.023,5.0237,5.0214,5.0211,5.0224,5.023,5.0232,5.0231,5.0063,5.0208,5.0206,5.0205,5.0205,5.0204,4.9982,5.0018,5.0038,5.0076,5.0092,5.0114,5.0147,5.0151,5.0184,5.0218,5.0209,5.0253,5.0269,5.0305,5.0316,5.0349,5.0327,5.0346,5.0351,5.0355,5.0361,5.0227,5.0353,5.0353,5.0353,5.0352,5.0352,0,5.0111,5.0122,5.0158,5.0191,5.0221,5.0199,5.0223,5.0248,5.0288,5.0306,5.0334,5.0379,5.0412,5.0416,5.0448,5.0473,5.0464,5.0482,5.048,5.0482,5.0379,5.0364,5.0489,5.0489,5.0489,5.0489,5.0489,5.0489,5.0181,5.0241,5.024,5.0307,5.0317,5.0362,5.0378,5.0397,5.0411,5.0463,5.0492,5.0495,5.0507,5.0539,5.0568,5.0568,5.0581,5.0604,5.06,5.0503,5.0489,5.0476,5.0463,5.0606,5.0607,5.07,5.0701,5.0702]}]]